User: anonymous   Login
Location: Peebles
(55.6412°N, 3.1714°W)
Time: 19:02:41
(UTC+01:00)
Language:

USA 281 - Orbit

View from above orbital plane
View from above orbital plane
View from above satellite
View from above satellite

Ground track
Ground track

The orbit data is extracted from the following two-line orbital elements,

1 43145U 18005A   22084.15340435 0.00000000  00000-0  00000-0 0    05
2 43145 106.0022  50.1808 0012396 208.8511 151.2299 13.48015959    02
Epoch (UTC): 25 March 2022 03:40:54
Eccentricity: 0.0012396
inclination: 106.0022°
perigee height: 1070 km
apogee height: 1089 km
right ascension of ascending node: 50.1808°
argument of perigee: 208.8511°
revolutions per day: 13.48015959
mean anomaly at epoch: 151.2299°
orbit number at epoch: 0

The dashed part of the orbit path shows where the satellite is in the earth's shadow,  

DLR